When you browse on this site, cookies collect data to enhance your experience and personalize the content and advertising you see.
Visit our Privacy Policy to learn more. By continuing to use the site, you agree to this use of cookies and data.

Météo par heure à Mongu

Ce jour, 14 Juillet, Mardi

Heure Température Précipitation Vent Pression Humidité
00:00 +15°C° 0 mm 2 m/s 674 mmHg 32%
01:00 +14°C° 0 mm 2 m/s 674 mmHg 34%
02:00 +12°C° 0 mm 2 m/s 674 mmHg 36%
03:00 +12°C° 0 mm 2 m/s 674 mmHg 38%
04:00 +10°C° 0 mm 2 m/s 674 mmHg 39%
05:00 +9°C° 0 mm 2 m/s 674 mmHg 40%
06:00 +10°C° 0 mm 2 m/s 674 mmHg 39%
07:00 +10°C° 0 mm 2 m/s 675 mmHg 37%
08:00 +12°C° 0 mm 2 m/s 675 mmHg 35%
09:00 +16°C° 0 mm 2 m/s 676 mmHg 29%
10:00 +21°C° 0 mm 2 m/s 677 mmHg 23%
11:00 +27°C° 0 mm 2 m/s 677 mmHg 16%
12:00 +28°C° 0 mm 2 m/s 677 mmHg 14%
13:00 +30°C° 0 mm 2 m/s 676 mmHg 12%
14:00 +31°C° 0 mm 2 m/s 676 mmHg 10%
15:00 +31°C° 0 mm 3 m/s 676 mmHg 10%
16:00 +31°C° 0 mm 3 m/s 675 mmHg 10%
17:00 +31°C° 0 mm 3 m/s 674 mmHg 10%
18:00 +27°C° 0 mm 3 m/s 674 mmHg 13%
19:00 +24°C° 0 mm 3 m/s 674 mmHg 16%
20:00 +19°C° 0 mm 3 m/s 674 mmHg 19%
21:00 +18°C° 0 mm 3 m/s 674 mmHg 19%
22:00 +17°C° 0 mm 3 m/s 675 mmHg 19%
23:00 +16°C° 0 mm 3 m/s 675 mmHg 19%

Demain, 15 Juillet, Mercredi

Heure Température Précipitation Vent Pression Humidité
00:00 +14°C° 0 mm 3 m/s 675 mmHg 18%
01:00 +13°C° 0 mm 4 m/s 675 mmHg 17%
02:00 +13°C° 0 mm 4 m/s 675 mmHg 16%
03:00 +12°C° 0 mm 4 m/s 675 mmHg 16%
04:00 +11°C° 0 mm 4 m/s 675 mmHg 17%
05:00 +11°C° 0 mm 4 m/s 676 mmHg 17%
06:00 +11°C° 0 mm 4 m/s 676 mmHg 17%
07:00 +11°C° 0 mm 4 m/s 677 mmHg 17%
08:00 +11°C° 0 mm 4 m/s 678 mmHg 18%
09:00 +17°C° 0 mm 4 m/s 678 mmHg 15%
10:00 +21°C° 0 mm 5 m/s 679 mmHg 12%
11:00 +26°C° 0 mm 5 m/s 680 mmHg 9%
12:00 +28°C° 0 mm 5 m/s 679 mmHg 8%
13:00 +30°C° 0 mm 4 m/s 679 mmHg 8%
14:00 +33°C° 0 mm 4 m/s 678 mmHg 7%
15:00 +32°C° 0 mm 4 m/s 678 mmHg 7%
16:00 +32°C° 0 mm 4 m/s 677 mmHg 8%
17:00 +32°C° 0 mm 4 m/s 677 mmHg 8%
18:00 +27°C° 0 mm 4 m/s 677 mmHg 11%
19:00 +22°C° 0 mm 3 m/s 677 mmHg 14%
20:00 +18°C° 0 mm 2 m/s 676 mmHg 17%
21:00 +18°C° 0 mm 3 m/s 677 mmHg 19%
22:00 +17°C° 0 mm 3 m/s 677 mmHg 21%
23:00 +15°C° 0 mm 4 m/s 677 mmHg 24%

Après-demain, 16 Juillet, Jeudi

Heure Température Précipitation Vent Pression Humidité
00:00 +15°C° 0 mm 4 m/s 677 mmHg 25%
01:00 +15°C° 0 mm 4 m/s 677 mmHg 27%
02:00 +14°C° 0 mm 4 m/s 678 mmHg 29%
03:00 +14°C° 0 mm 4 m/s 678 mmHg 30%
04:00 +13°C° 0 mm 4 m/s 678 mmHg 32%
05:00 +13°C° 0 mm 4 m/s 678 mmHg 34%
06:00 +13°C° 0 mm 5 m/s 678 mmHg 39%
07:00 +13°C° 0 mm 6 m/s 679 mmHg 44%
08:00 +13°C° 0 mm 6 m/s 680 mmHg 49%
09:00 +16°C° 0 mm 6 m/s 681 mmHg 45%
10:00 +19°C° 0 mm 6 m/s 681 mmHg 42%
11:00 +21°C° 0 mm 6 m/s 682 mmHg 38%
12:00 +23°C° 0 mm 6 m/s 681 mmHg 34%
13:00 +25°C° 0 mm 5 m/s 680 mmHg 29%
14:00 +27°C° 0 mm 5 m/s 680 mmHg 25%
15:00 +27°C° 0 mm 5 m/s 679 mmHg 24%
16:00 +27°C° 0 mm 5 m/s 679 mmHg 23%
17:00 +26°C° 0 mm 5 m/s 678 mmHg 22%
18:00 +23°C° 0 mm 5 m/s 678 mmHg 27%
19:00 +20°C° 0 mm 4 m/s 678 mmHg 31%
20:00 +17°C° 0 mm 4 m/s 678 mmHg 36%
21:00 +17°C° 0 mm 4 m/s 679 mmHg 40%
22:00 +15°C° 0 mm 4 m/s 679 mmHg 43%
23:00 +14°C° 0 mm 4 m/s 679 mmHg 47%

17 Juillet, Vendredi

Heure Température Précipitation Vent Pression Humidité
00:00 +13°C° 0 mm 4 m/s 679 mmHg 54%
01:00 +11°C° 0 mm 3 m/s 678 mmHg 60%
02:00 +10°C° 0 mm 3 m/s 678 mmHg 67%
03:00 +9°C° 0 mm 3 m/s 678 mmHg 70%
04:00 +8°C° 0 mm 3 m/s 678 mmHg 73%
05:00 +7°C° 0 mm 2 m/s 678 mmHg 75%
06:00 +8°C° 0 mm 3 m/s 678 mmHg 70%
07:00 +8°C° 0 mm 4 m/s 679 mmHg 65%
08:00 +8°C° 0 mm 4 m/s 679 mmHg 60%
09:00 +12°C° 0 mm 4 m/s 680 mmHg 52%
10:00 +15°C° 0 mm 4 m/s 680 mmHg 44%
11:00 +19°C° 0 mm 4 m/s 681 mmHg 35%
12:00 +21°C° 0 mm 4 m/s 680 mmHg 31%
13:00 +23°C° 0 mm 4 m/s 679 mmHg 26%
14:00 +26°C° 0 mm 4 m/s 679 mmHg 22%
15:00 +26°C° 0 mm 4 m/s 678 mmHg 21%
16:00 +26°C° 0 mm 4 m/s 678 mmHg 20%
17:00 +25°C° 0 mm 4 m/s 677 mmHg 19%
18:00 +21°C° 0 mm 4 m/s 677 mmHg 24%
19:00 +18°C° 0 mm 3 m/s 677 mmHg 28%
20:00 +14°C° 0 mm 3 m/s 677 mmHg 33%
21:00 +13°C° 0 mm 3 m/s 677 mmHg 36%
22:00 +12°C° 0 mm 3 m/s 677 mmHg 39%
23:00 +12°C° 0 mm 3 m/s 677 mmHg 42%

18 Juillet, Samedi

Heure Température Précipitation Vent Pression Humidité
00:00 +11°C° 0 mm 3 m/s 677 mmHg 46%
01:00 +10°C° 0 mm 3 m/s 677 mmHg 50%
02:00 +9°C° 0 mm 3 m/s 677 mmHg 53%
03:00 +8°C° 0 mm 3 m/s 677 mmHg 58%
04:00 +8°C° 0 mm 3 m/s 677 mmHg 62%
05:00 +7°C° 0 mm 2 m/s 677 mmHg 67%
06:00 +7°C° 0 mm 3 m/s 677 mmHg 65%
07:00 +8°C° 0 mm 3 m/s 678 mmHg 64%
08:00 +8°C° 0 mm 4 m/s 679 mmHg 62%
09:00 +12°C° 0 mm 4 m/s 679 mmHg 54%
10:00 +15°C° 0 mm 5 m/s 680 mmHg 46%
11:00 +20°C° 0 mm 5 m/s 680 mmHg 37%
12:00 +21°C° 0 mm 5 m/s 679 mmHg 33%
13:00 +23°C° 0 mm 5 m/s 679 mmHg 28%
14:00 +26°C° 0 mm 4 m/s 678 mmHg 23%
15:00 +26°C° 0 mm 4 m/s 678 mmHg 22%
16:00 +26°C° 0 mm 4 m/s 677 mmHg 22%
17:00 +26°C° 0 mm 4 m/s 677 mmHg 21%
18:00 +22°C° 0 mm 4 m/s 677 mmHg 26%
19:00 +19°C° 0 mm 3 m/s 676 mmHg 30%
20:00 +16°C° 0 mm 3 m/s 676 mmHg 35%
21:00 +14°C° 0 mm 3 m/s 676 mmHg 37%
22:00 +13°C° 0 mm 3 m/s 677 mmHg 39%
23:00 +12°C° 0 mm 3 m/s 677 mmHg 41%

19 Juillet, Dimanche

Heure Température Précipitation Vent Pression Humidité
00:00 +12°C° 0 mm 3 m/s 677 mmHg 44%
01:00 +11°C° 0 mm 3 m/s 676 mmHg 47%
02:00 +10°C° 0 mm 3 m/s 676 mmHg 50%
03:00 +9°C° 0 mm 2 m/s 676 mmHg 54%
04:00 +8°C° 0 mm 2 m/s 676 mmHg 59%
05:00 +7°C° 0 mm 2 m/s 676 mmHg 63%
06:00 +8°C° 0 mm 3 m/s 677 mmHg 63%
07:00 +9°C° 0 mm 3 m/s 677 mmHg 62%
08:00 +10°C° 0 mm 4 m/s 678 mmHg 61%
09:00 +13°C° 0 mm 4 m/s 678 mmHg 51%
10:00 +17°C° 0 mm 5 m/s 679 mmHg 42%
11:00 +21°C° 0 mm 5 m/s 679 mmHg 32%
12:00 +23°C° 0 mm 5 m/s 679 mmHg 28%
13:00 +26°C° 0 mm 4 m/s 678 mmHg 24%
14:00 +27°C° 0 mm 4 m/s 677 mmHg 20%
15:00 +27°C° 0 mm 4 m/s 677 mmHg 20%
16:00 +27°C° 0 mm 3 m/s 677 mmHg 20%
17:00 +27°C° 0 mm 3 m/s 676 mmHg 20%
18:00 +24°C° 0 mm 3 m/s 676 mmHg 26%
19:00 +20°C° 0 mm 2 m/s 676 mmHg 31%
20:00 +17°C° 0 mm 2 m/s 675 mmHg 37%
21:00 +16°C° 0 mm 2 m/s 676 mmHg 39%
22:00 +15°C° 0 mm 2 m/s 676 mmHg 41%
23:00 +13°C° 0 mm 3 m/s 676 mmHg 44%
Voir plus